SCP
1 1 1 1 1 1 2 2 2 2 2 2 2 2 1 1 1 1 1 1 0 1 0 0 1 1 1 1 1 1 1 1 1 1 1 1 1 1 1 1 1 1 1
1 1 1 1 1 1 2 2 2 2 2 2 2 2 2 1 1 1 1 1 0 0 0 0 1 1 1 1 1 1 1 1 1 1 1 1 1 1 1 1 1 1 1
1 2 2 2 1 1 1 2 2 3 3 3 3 3 2 2 1 1 1 1 0 0 0 0 1 1 1 1 1 1 1 1 1 1 1 1 1 1 1 1 1 1 1
1 1 2 2 2 1 1 1 2 3 3 3 4 3 3 2 2 1 1 1 1 1 1 1 1 1 0 1 1 1 1 1 1 1 1 1 1 1 1 1 1 1 1
1 1 1 2 1 1 1 1 2 3 4 4 4 4 3 3 2 1 1 1 1 1 1 1 1 1 1 1 1 1 1 1 1 2 2 2 2 2 2 1 1 1 1
1 2 2 2 2 2 1 2 3 4 5 5 4 4 4 3 2 2 1 1 1 1 1 1 1 1 1 1 1 1 1 1 2 2 2 2 3 3 2 2 2 2 2
2 2 3 3 3 2 2 3 3 4 4 4 4 4 4 3 2 2 2 2 2 2 2 2 2 2 2 2 2 2 2 2 2 2 3 3 3 3 3 3 3 3 3
2 2 3 3 3 3 3 3 3 4 4 4 4 3 3 3 2 2 2 2 2 2 2 3 3 3 3 2 2 2 2 2 2 2 3 3 3 3 4 4 4 4 4
3 3 3 3 3 3 2 2 3 4 4 4 4 4 3 3 3 3 3 3 3 3 4 3 3 3 3 3 2 2 2 2 2 2 2 2 2 3 4 4 5 5 5
3 4 5 5 4 3 3 2 3 3 4 4 4 4 4 3 3 4 4 4 5 5 4 4 4 4 3 3 3 3 2 2 2 1 1 1 2 2 2 3 4 5 5
3 4 6 7 6 4 3 3 3 3 3 3 3 3 3 3 3 4 5 6 7 7 5 5 5 5 5 4 4 3 3 3 2 2 2 2 2 2 2 3 3 4 4
3 4 6 8 8 6 4 4 3 3 3 3 3 3 3 3 3 4 6 8 10 9 7 7 7 6 6 6 5 4 3 3 3 3 3 3 3 3 4 4 4 4 4
3 4 5 7 8 6 5 4 4 4 4 3 3 2 3 4 4 5 9 11 11 10 10 11 9 7 6 7 6 5 4 4 4 3 3 4 4 4 5 5 5 5 5
2 3 4 5 5 5 5 4 4 4 4 4 3 3 5 6 7 9 13 13 11 10 12 14 13 10 8 7 7 6 5 5 4 4 4 4 4 4 5 6 7 7 7
2 3 4 4 4 4 4 5 5 5 4 4 4 5 7 8 10 13 15 13 9 8 11 15 16 13 9 6 6 6 6 5 4 4 4 4 3 4 4 4 6 7 7
2 2 3 3 3 4 4 5 6 6 5 5 5 7 9 11 14 16 13 9 6 6 8 12 13 11 7 4 4 5 5 5 4 4 3 3 3 3 3 3 3 4 5
2 3 3 3 3 3 4 5 6 6 6 6 6 8 11 15 18 15 10 6 5 5 5 6 6 5 3 2 2 4 5 5 4 3 4 3 3 3 4 3 3 3 3
3 4 4 4 3 3 3 4 5 6 6 7 7 9 12 17 17 13 9 7 6 5 4 4 3 3 3 2 2 3 4 5 4 4 4 5 4 4 5 5 4 4 4
5 5 5 4 4 3 3 3 4 5 6 7 8 11 14 16 15 13 11 9 8 6 5 4 4 4 3 2 1 2 4 4 4 4 5 5 5 4 4 5 5 5 5
7 6 5 5 5 5 5 4 5 5 6 8 9 11 13 16 16 15 13 10 9 7 6 5 5 4 4 3 1 2 3 4 4 5 5 4 4 3 3 3 4 4 4
6 6 5 5 5 6 6 6 6 6 7 7 8 9 12 15 17 17 13 10 8 7 6 5 5 5 5 3 1 1 3 4 4 5 5 4 2 1 1 2 2 3 3
5 5 5 5 6 6 7 6 6 7 7 7 8 9 12 15 16 14 11 8 7 6 6 6 6 6 5 3 2 1 2 3 4 4 4 3 2 0 0 0 1 1 1
4 4 5 6 7 8 8 7 7 7 8 8 9 12 15 16 14 10 8 7 7 6 6 7 6 6 6 4 3 2 1 2 3 4 4 3 1 0 0 0 0 1 1
4 5 6 6 7 8 8 8 8 8 8 9 10 12 14 13 10 8 7 8 8 7 6 7 7 6 6 5 4 3 2 2 3 4 4 2 1 0 0 0 1 2 2
6 7 7 7 6 7 8 8 8 8 8 8 9 10 9 8 7 7 7 8 8 7 6 7 7 6 5 5 5 4 3 3 3 5 4 3 2 1 1 1 2 3 4
8 8 9 7 6 6 7 7 8 8 8 7 7 7 7 7 6 7 8 8 7 6 6 7 6 6 5 4 4 3 2 2 3 4 5 3 2 2 2 2 3 3 4
Wind_Speed
10 9 9 8 8 8 7 7 7 6 5 4 4 3 3 2 2 2 2 2 2 2 1 1 2 1 1 1 1 1 2 1 1 1 1 2 3 2 2 2 2 2 2
10 10 10 10 9 9 8 8 8 7 7 5 3 2 2 2 2 1 2 3 3 3 3 2 2 2 1 2 1 1 1 0 1 1 1 1 3 3 2 2 3 2 2
12 12 12 11 10 10 9 8 8 8 7 6 4 4 3 3 3 3 3 3 3 3 2 2 2 2 3 2 2 2 2 1 1 1 2 2 1 0 2 1 1 1 2
11 12 12 12 11 11 10 9 9 8 8 7 6 6 4 3 3 2 2 2 3 3 3 3 3 3 2 2 3 2 2 2 2 1 1 2 2 3 1 2 2 2 2
11 12 12 12 11 11 10 10 9 9 9 8 7 6 5 4 3 3 2 2 2 3 3 3 2 3 2 2 1 1 3 3 3 2 1 1 2 3 3 2 2 1 1
10 11 11 11 11 11 10 10 10 9 9 9 8 7 6 4 3 3 3 3 2 2 3 3 2 3 2 2 3 3 4 3 3 3 2 2 2 2 2 3 3 2 1
9 10 11 12 11 11 11 10 10 9 9 9 8 7 7 6 5 5 4 3 2 2 2 2 2 2 2 3 3 3 3 3 3 3 3 3 3 3 3 3 3 3 2
9 10 10 11 11 11 11 10 10 9 10 9 8 7 7 6 5 5 4 3 3 2 2 2 2 2 2 3 3 3 3 3 3 4 3 3 3 3 3 3 4 4 3
8 9 9 10 10 11 11 11 10 9 9 9 8 7 7 5 4 4 4 3 3 2 3 3 3 3 3 3 3 2 3 3 4 4 4 4 2 3 3 3 4 4 4
7 8 8 9 9 10 10 10 10 9 9 8 7 6 7 6 5 5 4 3 3 2 3 3 3 3 3 3 3 3 3 3 3 2 2 3 3 2 3 3 3 4 4
6 7 7 7 8 9 10 10 9 9 9 8 7 6 6 6 6 5 5 4 3 3 3 3 3 3 3 3 3 4 3 4 3 3 3 3 3 3 3 3 3 3 3
5 6 7 7 7 8 8 9 8 9 8 8 8 7 6 6 6 6 5 5 4 5 4 4 4 4 3 3 4 4 4 4 4 3 3 3 3 3 4 3 4 3 4
4 5 6 6 6 6 7 7 8 7 7 7 8 7 7 7 6 6 5 5 5 5 4 4 4 4 3 3 4 4 4 4 3 3 3 3 3 4 3 4 4 4 4
4 4 5 6 6 6 6 6 7 7 7 7 7 7 7 6 6 6 5 5 5 5 5 4 4 4 4 4 4 4 3 3 3 3 3 3 4 4 4 4 4 5 5
4 4 4 5 5 5 5 6 6 6 6 6 7 7 6 6 6 6 5 5 5 5 5 5 4 4 4 4 3 3 4 3 3 3 3 3 2 3 4 5 4 4 5
3 3 4 4 5 5 5 5 5 6 6 6 6 6 6 6 6 6 5 5 5 5 5 5 5 5 4 2 2 3 3 3 3 3 3 3 2 2 3 3 4 5 5
2 2 3 3 3 4 4 5 5 5 6 6 6 6 6 6 6 6 5 5 5 5 5 5 5 4 3 3 4 4 3 3 3 3 3 4 2 3 3 3 4 4 5
1 2 2 2 3 3 4 4 4 5 5 5 5 5 5 5 5 6 6 5 5 5 5 4 4 4 3 5 5 5 5 4 4 4 4 4 3 3 3 4 3 4 3
1 1 1 1 2 2 3 4 4 4 5 5 4 4 5 5 5 5 5 5 5 5 5 5 5 4 3 5 6 6 5 4 5 4 4 4 3 1 2 3 4 4 4
0 0 1 1 1 1 2 3 4 4 4 4 4 4 4 5 5 5 4 4 4 4 5 4 5 4 4 4 6 6 4 4 4 4 3 3 2 2 2 4 4 4 4
0 0 0 1 1 1 2 3 3 4 3 3 3 4 4 5 5 4 4 4 4 4 4 4 4 4 3 5 5 5 4 3 4 3 3 2 3 3 3 4 3 4 5
0 0 1 1 1 1 2 3 3 3 3 3 3 4 4 4 3 4 4 4 4 4 4 4 3 3 3 4 5 6 4 4 4 3 2 1 3 3 3 3 2 4 6
1 1 1 1 1 1 2 2 2 3 3 4 4 3 3 3 3 3 4 4 4 4 3 3 3 3 2 3 5 6 4 4 3 2 1 1 3 3 3 3 4 5 4
2 2 2 1 1 1 2 2 2 2 3 3 3 3 3 3 2 2 3 2 2 3 3 3 3 3 2 2 2 3 3 4 3 2 3 5 5 4 2 3 4 4 3
2 2 2 2 2 1 2 2 2 3 3 3 3 3 2 2 2 2 0 2 1 1 2 2 2 3 3 2 2 2 2 2 1 1 2 2 2 2 2 3 3 3 3
2 3 3 3 2 1 1 1 2 3 4 3 3 2 2 2 2 2 1 4 2 2 2 2 2 1 0 3 3 2 1 2 3 3 3 3 3 3 3 3 3 3 3
Wind_Direction
183 182 185 184 182 180 181 183 186 176 180 182 187 177 173 179 177 179 164 191 198 174 215 217 169 213 156 176 170 188 173 174 160 207 192 184 198 207 215 229 240 218 222
185 184 188 187 186 184 186 184 186 183 187 182 187 190 189 198 184 184 170 196 192 197 194 207 222 192 187 188 200 212 262 165 168 281 271 215 177 194 188 201 215 235 225
193 189 191 193 190 188 189 190 187 184 189 184 185 182 183 201 186 191 189 195 203 205 215 205 227 222 224 179 201 206 221 238 217 278 299 303 14 315 162 192 215 242 249
195 192 191 195 195 190 187 189 186 186 185 185 194 195 201 202 199 204 186 198 207 216 210 210 213 230 232 194 215 179 220 236 233 195 258 310 341 300 254 193 180 203 232
193 192 192 192 195 192 186 184 184 187 186 190 191 202 208 206 200 200 189 223 205 214 213 212 209 212 219 208 250 234 241 238 260 259 237 235 229 254 280 293 288 243 225
191 191 190 188 192 190 188 183 182 187 188 190 193 199 207 209 208 210 203 210 197 197 203 204 205 209 208 201 220 233 229 243 263 274 268 256 260 265 275 280 276 288 292
190 187 187 187 189 190 189 185 181 186 188 191 195 197 204 205 208 219 212 221 212 194 178 201 205 212 206 213 221 222 238 237 239 249 262 266 271 285 288 286 295 297 285
186 186 185 185 186 187 186 185 183 188 190 191 194 198 202 210 211 216 230 216 228 199 167 190 191 205 215 215 216 228 223 222 234 242 255 267 267 270 272 281 291 290 285
180 181 181 183 183 184 184 185 183 187 191 190 189 195 201 213 218 213 224 224 218 200 180 192 193 201 208 220 223 230 233 227 236 239 232 254 265 263 268 266 270 282 289
176 177 175 178 177 178 177 180 180 183 186 188 191 187 194 201 210 217 216 225 223 212 195 201 204 211 213 213 222 221 216 224 230 244 265 268 272 275 267 269 274 273 279
174 172 169 169 168 171 173 176 179 182 185 188 187 192 189 192 197 203 205 205 206 200 207 208 211 216 214 211 215 228 219 226 233 238 237 251 276 280 279 275 271 271 273
166 162 161 160 165 170 172 172 177 182 185 185 185 189 190 193 199 202 204 200 201 204 203 206 210 215 213 216 221 231 228 228 231 237 242 252 252 259 274 278 275 276 279
155 154 155 156 161 166 170 172 177 180 183 182 186 190 194 195 202 207 204 202 202 207 211 213 217 221 220 219 222 229 231 231 232 235 240 248 256 261 271 275 278 276 274
155 157 156 156 158 163 169 176 179 180 181 183 188 192 197 199 202 204 202 204 206 207 208 210 213 217 220 220 217 214 222 228 232 241 247 248 254 261 266 266 271 279 280
148 154 160 155 160 164 170 179 181 180 184 189 195 195 194 197 202 203 203 202 208 212 209 212 211 210 214 219 215 215 216 223 231 239 250 254 274 307 290 288 285 281 277
138 143 153 152 164 173 179 180 183 181 184 196 202 195 195 197 201 202 204 204 210 216 214 215 214 214 223 166 187 221 209 217 229 236 248 246 220 235 244 272 287 295 284
120 129 148 152 162 171 176 181 183 183 188 197 201 198 200 203 202 204 203 205 208 211 214 214 215 218 213 160 175 210 218 222 233 237 246 257 247 250 259 239 230 243 251
130 137 151 156 161 163 171 177 180 182 189 196 201 203 206 204 201 204 206 207 208 213 217 217 218 219 204 176 186 204 217 228 229 231 239 249 257 266 279 275 280 279 274
166 174 173 162 152 161 167 173 185 186 192 198 202 201 205 204 204 209 210 208 207 210 216 218 219 217 199 184 191 206 216 220 223 225 229 238 242 270 287 270 277 285 288
0 145 175 164 159 170 179 184 189 195 201 200 201 200 204 206 204 206 207 203 203 210 219 217 216 213 202 176 184 206 222 219 221 218 217 211 231 206 239 253 262 275 289
250 193 231 213 194 197 197 200 200 205 207 204 203 206 209 212 209 202 201 201 205 208 217 214 210 200 189 174 181 209 235 234 236 239 233 196 162 202 235 259 268 280 283
258 252 256 260 250 221 205 203 211 214 207 205 209 214 214 218 207 204 205 206 206 204 208 203 206 195 182 183 191 203 226 261 243 250 252 177 161 207 232 252 282 278 274
289 290 281 263 243 236 218 217 222 221 209 207 208 209 209 212 207 207 209 209 206 214 213 207 209 204 193 180 181 186 196 220 239 253 94 145 181 219 222 221 245 255 264
275 279 276 268 268 253 234 225 221 210 211 214 213 203 199 198 193 209 216 218 219 225 224 222 221 209 199 195 194 185 176 182 203 203 156 178 201 228 245 234 239 254 272
258 264 272 278 275 256 240 234 219 204 211 214 219 217 208 187 187 197 251 232 262 270 249 242 234 223 219 203 178 206 203 217 186 199 207 209 205 226 239 245 254 266 262
260 258 261 270 277 271 269 264 235 206 209 205 208 222 214 192 198 177 138 49 54 90 80 3 290 259 185 152 162 165 147 148 166 204 216 224 226 233 241 246 245 251 263